455  
ASUS41 KAKQ 260711  
RWRAKQ  
 
REGIONAL WEATHER ROUNDUP  
NATIONAL WEATHER SERVICE WAKEFIELD VA  
200 AM EST MON FEB 26 2024  
 
NOTE: "FAIR" INDICATES FEW OR NO CLOUDS BELOW 12,000 FEET WITH NO  
SIGNIFICANT WEATHER AND/OR S TO VISIBILITY
. * = DENOTES  
STATION MAY NOT REPORT PRECIPITATION (E.G., RAIN,SNOW,ETC.),
 
THUNDER OR FOG.  
 
VAZ042-051-052>054-056-260800-  
NORTHERN VIRGINIA  
 
CITY SKY/WX TMP DP RH WIND PRES REMARKS
 
WASH NATIONAL MOCLDY 40 29 64 S9 30.05F  
DULLES CLOUDY 40 26 57 S7 30.03F  
FORT BELVOIR CLOUDY 39 29 67 SE5 30.04F  
QUANTICO CLOUDY 42 32 67 S7 30.08F  
FREDERICKSBRG* CLOUDY 39 30 68 S3 30.06S  
STAFFORD* CLOUDY 38 26 61 CALM 30.06F  
WARRENTON CLOUDY 41 26 54 S7 30.04F  
CULPEPER* CLOUDY 42 27 55 S5 30.04F  
MANASSAS* CLOUDY 38 28 67 CALM 30.04F  
LEESBURG* MOCLDY 36 30 80 S5 30.04F  
WINCHESTER MOCLDY 41 23 48 SW8 29.97F  
FRONT ROYAL* MOCLDY 43 23 45 S7 29.99S  
LURAY* MOCLDY 41 23 48 S6 30.01S  

 
 
VAZ048-049-060>072-079>083-260800-  
CENTRAL AND SOUTH CENTRAL VIRGINIA  
 
CITY SKY/WX TMP DP RH WIND PRES REMARKS
 
RICHMOND MOCLDY 39 32 76 S12 30.10F  
CHESTERFIELD* MOCLDY 38 32 79 S7 30.10F  
PETERSBURG* MOCLDY 37 32 84 CALM 30.13S  
HANOVER MOCLDY 42 32 67 S9 30.10F  
TAPPAHANNOCK* MOCLDY 37 31 79 CALM 30.11F  
QUINTON* MOCLDY 36 32 85 S3 30.12F  
CHARLOTTSVILLE CLOUDY 41 27 57 S7 30.04S  
GORDONSVILLE* CLOUDY 36 30 80 SW3 30.05F  
ORANGE* CLOUDY 37 30 75 SW3 30.07S  
LOUISA* CLOUDY 41 29 61 S6 30.06S  
BUMPASS* CLOUDY 40 29 64 SW3 30.06F  
FARMVILLE* PTCLDY 38 30 72 S6 30.07F  
CREWE* CLOUDY 39 29 68 S3 30.09F  
FORT PICKETT* MOCLDY 40 32 74 S6 30.10F  
CHASE CITY* MOCLDY 42 32 67 MISG 30.10F  
CLARKSVILLE* PTCLDY 43 32 65 S7 30.11F  
SOUTH HILL* CLOUDY 43 35 72 S7 30.17F  
LAWRENCEVILLE* MOCLDY 40 33 77 S3 30.14S  
EMPORIA* N/A N/A N/A N/A MISG N/A  

 
 
VAZ088>098-260800-  
SOUTHEAST VIRGINIA  
 
CITY SKY/WX TMP DP RH WIND PRES REMARKS
 
NORFOLK CLEAR 37 29 72 S7 30.15F  
VIRGINIA BEACH CLEAR 37 31 78 S6 30.15F  
NORFOLK NAVAL PTCLDY 39 30 70 S12 30.16F  
WEST POINT* MOCLDY 37 30 74 CALM 30.13F  
SALUDA* MOCLDY 37 28 71 S6 30.13S  
NEWPORT NEWS PTCLDY 38 30 73 S10 30.15S  
LANGLEY AFB CLEAR 39 29 67 SW9 30.15S  
FORT EUSTIS MOCLDY 42 33 69 S8 30.12S  
WILLIAMSBURG* NOT AVBL  
HR EXEC AP* CLEAR 34 28 80 S5 30.17F  
FRANKLIN* PTCLDY 34 30 85 S6 30.16F  
US460-WAKEFLD PTCLDY 36 31 82 VRB3 30.15S  

 
 
VAZ020-022-025-037-045-260800-  
WEST CENTRAL AND SOUTHWEST VIRGINIA  
 
CITY SKY/WX TMP DP RH WIND PRES REMARKS
 
STAUNTON* MOCLDY 38 23 55 S6 30.05S  
WAYNESBORO* MOCLDY 34 22 61 CALM 30.02S  
HOT SPRINGS VA CLOUDY 40 20 44 SW15 29.99F  
LYNCHBURG MOCLDY 40 27 59 S6 30.07S  
DANVILLE MOCLDY 39 29 67 SW5 30.11S  
SOUTH BOSTON* CLEAR 40 29 66 SW3 30.11S  
MARTINSVILLE CLOUDY 45 21 39 S3 30.13S  
ROANOKE CLOUDY 43 24 47 CALM 30.08S  
BLACKSBURG CLOUDY 42 26 52 CALM 30.09S  
DUBLIN* CLOUDY 40 27 59 SW3 30.06S  
MARION* CLOUDY 36 28 73 CALM 30.09S  
HILLSVILLE* CLOUDY 40 24 53 SW7 30.06S  
RICHLANDS* PTCLDY 49 29 46 SW15G22 30.05R  
WISE* MOCLDY 46 27 46 SW18G29 30.05S  
ABINGDON* CLOUDY 43 28 55 CALM 30.07S  

 
 
MDZ021>025-VAZ099-100-260800-  
SOUTHERN MARYLAND AND THE DELMARVA PENINSULA  
 
CITY SKY/WX TMP DP RH WIND PRES REMARKS
 
PATUXENT RIVER CLOUDY 41 30 65 VRB6 30.09F  
BAY BRIDGE APT CLEAR 40 34 78 S13 30.07F  
LEONARDTOWN MOCLDY 36 30 80 S7 30.10F  
DOVER CLEAR 33 25 71 S10 30.07F  
GEORGETOWN CLEAR 32 27 81 S8 30.10F  
EASTON CLEAR 36 33 87 S8 30.08F  
CAMBRIDGE N/A 39 39 100 VRB6 30.10F  
SALISBURY CLEAR 33 27 78 S6 30.12F  
TANGIER CLEAR 42 36 79 S14G20 30.12F  
OCEAN CITY CLEAR 41 32 70 SW10 30.13F  
WALLOPS ISLAND CLEAR 38 32 79 S10 30.14F  
ACCOMACK* NOT AVBL  

 
 
NCZ012>017-030>032-260800-  
NORTH CENTRAL AND EASTERN NORTH CAROLINA  
 
CITY SKY/WX TMP DP RH WIND PRES REMARKS
 
ROANOKE RAPIDS PTCLDY 34 34 100 SW3 30.16S  
RALEIGH PTCLDY 43 32 65 S5 30.15S  
ELIZABETH CITY CLEAR 37 32 82 S7 30.18F  
AHOSKIE* PTCLDY 33 33 100 S3 30.17S  
EDENTON* CLEAR 41 40 95 S9 30.19S  
CURRITUCK* CLEAR 34 31 88 CALM 30.17F  
KILL DEVIL HLS CLEAR 38 33 81 CALM 30.18F  
MANTEO CLEAR 41 34 75 SW8 30.20F  
CAPE HATTERAS CLEAR 30 27 88 MISG 30.20S  
TARBORO* PTCLDY 34 34 99 CALM 30.17F  
GOLDSBORO MOCLDY 41 35 77 SW3 30.16S  
WASHINGTON CLEAR 40 35 82 S3 30.19S  
GREENVILLE CLEAR 36 36 100 S6 30.19S  
NEW BERN CLEAR 37 35 92 CALM 30.20S  
WILMINGTON CLEAR 37 34 89 CALM 30.20S  

 
 
VAZ048-260800-  
ELSEWHERE  
 
CITY SKY/WX TMP DP RH WIND PRES REMARKS
 
HARRISBURG PA CLOUDY 34 24 67 SE5 30.03S  
BALTIMORE PTCLDY 33 24 69 CALM 30.05F  
ANNAPOLIS CLEAR 39 29 67 S7 30.07S  
ANDREWS AFB PTCLDY 37 28 71 S10 30.03F  
PHILADELPHIA PTCLDY 32 23 69 SW3 30.09S  
HENDERSON NC PTCLDY 39 31 71 S7 30.12F  
GREENSBORO MOCLDY 42 28 57 SW8 30.11S  
ROCKY MOUNT MOCLDY 39 34 82 S6 30.16F  

 
 
VAZ100-260800-  
MARINE  
 
STATION/POSITION TIME TEMP WIND PRES WAVE SWELL
 
AIR SEA DIR/SP/G HT/PER HT/PER  
(UTC) (F) (DEG/KT/KT) (MB) (FT/S) (FT/S)  
CAPE MAY NJ 0630 39 45 180/ 10/ 14 1019.6S  
LEWES DE 0630 36 42 190/ 6/ 11 1019.8F  
15NM E FENWICK I 0650 42 43 190/ 16/ 19 1020.1F 4/ 9 2/ 9  
OCEAN-CITY-INLET 0630 40 43 230/ 11/ 13 1018.7F  
44089 WALLOPS IS 0656 43 N/A 3/ 4  
WACHAPREAGUE VA 0630 41 45 210/ 7/ 11 1020.1F  
THOMAS POINT MD 0700 40 160/ 17/ 20 1018.8F  
GOOSES REEF MD 0648 37 42 180/ 19/ 25 N/A 2/ 4  
COVE POINT MD 0630 39 100/ 12/ 14 1019.3F  
SOLOMONS ISLAND 0630 39 44 190/ 8/ 13 1018.9F  
BISHOPS HEAD MD 0630 43 44 190/ 16/ 22 1019.6F  
PINEY POINT MD 0630 200/ 10/ 11 N/A  
POTOMAC MD 0642 38 44 180/ 17/ 23 N/A 1/ 2  
CAMBRIDGE MD 0630 39 43 180/ 6/ 9 1019.6F  
LEWISETTA VA 0630 38 45 200/ 11/ 13 1019.5F  
RAPPAHANNOCK LGT 0630 170/ 13/ 15 1021.9S  
STINGRAY PT 0642 39 44 200/ 14/ 17 N/A 1/ 4  
YORKTOWN VA 0630 39 46 180/ 4/ 6 1020.4S  
JAMESTOWN VA 0642 36 49 190/ 12/ 16 N/A  
DOMINION TERM VA 0630 39 200/ 11/ 13 1021.3F  
KIPTOPEKE VA 0630 42 45 210/ 16/ 17 1021.7F  
CHES BAY BRIDGE 0630 40 200/ 15/ 17 1019.3F  
CAPE HENRY VA 0630 38 180/ 9/ 12 1021.3F  
WILLOUBY STN VA 0630 39 190/ 15/ 18 1020.8F  
S CRANEY ISL VA 0630 39 190/ 10/ 12 1020.9F  
CAPE HENRY BUOY 0626 44 N/A 3/ 9  
1ST LANDING BUOY 0642 38 45 190/ 19/ 23 N/A 2/17  
64NM E OF VA BCH 0650 44 47 170/ 6/ 8 1022.1F 3/ 8 3/ 8  
DUCK PIER NC 0630 41 180/ 6/ 8 1021.9F  
44100 DUCK FRF 0630 43 45 N/A 3/ 7 2/10  
44056 DUCK FRF 0626 45 N/A 3/11 2/11  
OREGON INLET NC 0630 43 48 210/ 5/ 6 1023.6F  
HATTERAS NC 0630 41 50 CALM / 1 1023.1S  
DIAMOND SHLS NC 0650 57 350/ 4/ 6 1022.6S 3/ 9  
CAPE LOOKOUT NC 0600 47 130/ 2/ 2 1023.3F  

 
 
 
CLICK HERE TO GO TO PREVIOUS BULLETINS.

The Nexlab VA Page
The Nexlab NC Page
The Nexlab MD Page Main Text Page